Weather observations for the past three days for
Phoenix-Mesa Gateway Airport
| Date | Time (mst) | Wind (kph) | Vis. (km) | Weather | Sky Cond. | Temperature (ºC) | Relative Humidity | Wind Chill (°C) | Heat Index (°C) | Pressure | Precipitation (cm) | ||||||
|---|---|---|---|---|---|---|---|---|---|---|---|---|---|---|---|---|---|
| Air | Dwpt | 6 hour | altimeter (cm) | sea level (mb) | 1 hr | 3 hr | 6 hr | ||||||||||
| Max. | Min. | ||||||||||||||||
| 04 | 19:49 | N 9 | 16.09 | Fair | CLR | 36 | 15 | 28% | 36 | 75.79 | 0.0 | ||||||
| 04 | 18:48 | W 7 | 16.09 | Partly Cloudy | SCT110 | 36 | 14 | 27% | 35 | 75.77 | 0.0 | ||||||
| 04 | 17:47 | SW 17 G 26 | 16.09 | Partly Cloudy | SCT100 | 37 | 14 | 25% | 36 | 75.77 | 0.0 | ||||||
| 04 | 16:47 | S 9 | 16.09 | Partly Cloudy | SCT100 | 37 | 14 | 25% | 36 | 75.77 | 0.0 | ||||||
| 04 | 15:47 | E 17 | 16.09 | Partly Cloudy | SCT110 | 37 | 15 | 27% | 37 | 75.79 | 0.0 | ||||||
| 04 | 14:53 | S 15 | 16.09 | NULL | NULL | 37 | 15 | 27% | 37 | 75.84 | 0.0 | ||||||
| 04 | 13:54 | S 15 G 28 | 16.09 | Partly Cloudy | SCT080 | 36 | 17 | 32% | 37 | 75.92 | 0.0 | ||||||
| 04 | 12:53 | S 17 G 33 | 16.09 | Partly Cloudy | SCT065 | 36 | 18 | 34% | 37 | 75.97 | 0.0 | ||||||
| 04 | 11:48 | S 9 G 28 | 16.09 | Fair | CLR | 35 | 18 | 36% | 36 | 76.05 | 0.0 | ||||||
| 04 | 10:55 | SE 19 | 16.09 | Partly Cloudy | SCT100 | 34 | 19 | 41% | 36 | 76.07 | 0.0 | ||||||
| 04 | 09:48 | SE 20 G 31 | 16.09 | Fair | CLR | 32 | 20 | 49% | 34 | 76.1 | 0.0 | ||||||
| 04 | 08:48 | SE 20 | 16.09 | Fair | CLR | 31 | 20 | 52% | 33 | 76.07 | 0.0 | ||||||
| 04 | 07:50 | S 20 | 16.09 | Fair | CLR | 30 | 21 | 59% | 33 | 76.07 | 0.0 | ||||||
| 04 | 06:48 | SE 20 | 16.09 | Fair | CLR | 28 | 21 | 66% | 30 | 76 | 0.0 | ||||||
| 04 | 05:48 | SE 15 | 16.09 | Fair | CLR | 28 | 21 | 66% | 30 | 75.95 | 0.0 | ||||||
| 04 | 04:51 | SE 19 | 16.09 | Fair | CLR | 29 | 20 | 58% | 31 | 75.92 | 0.0 | ||||||
| 04 | 04:35 | S 24 | 16.09 | Partly Cloudy | SCT110 | 28.9 | 20.3 | 60% | 31 | 75.92 | 0.0 | ||||||
| 04 | 04:15 | S 22 | 16.09 | Mostly Cloudy | BKN110 | 28.9 | 20.1 | 59% | 31 | 75.92 | 0.0 | ||||||
| 04 | 03:55 | SE 22 | 16.09 | Partly Cloudy | SCT110 | 28.9 | 20.1 | 59% | 31 | 75.92 | 0.0 | ||||||
| 04 | 03:35 | SE 19 | 16.09 | Fair | CLR | 29 | 20 | 58% | 31 | 75.9 | 0.0 | ||||||
| 04 | 03:15 | SE 17 | 16.09 | Partly Cloudy | SCT110 | 29 | 20 | 58% | 31 | 75.87 | 0.0 | ||||||
| 04 | 02:55 | SE 13 | 16.09 | Partly Cloudy | SCT110 | 29.2 | 19.8 | 57% | 31 | 75.87 | 0.0 | ||||||
| 04 | 02:35 | SE 13 | 16.09 | Fair | CLR | 29.6 | 19.7 | 55% | 31 | 75.87 | 0.0 | ||||||
| 04 | 02:15 | S 13 | 16.09 | Partly Cloudy | SCT110 | 29.6 | 19.7 | 55% | 31 | 75.87 | 0.0 | ||||||
| 04 | 01:55 | SE 15 | 16.09 | Partly Cloudy | SCT100 | 29.8 | 19.7 | 55% | 31 | 75.87 | 0.0 | ||||||
| 04 | 01:35 | SE 15 | 16.09 | Partly Cloudy | SCT100 | 29.5 | 19.8 | 56% | 31 | 75.87 | 0.0 | ||||||
| 04 | 01:15 | SE 17 | 16.09 | Fair | CLR | 29.7 | 19.7 | 55% | 31 | 75.87 | 0.0 | ||||||
| 04 | 00:55 | S 20 | 16.09 | Partly Cloudy | SCT100 | 29.9 | 19.7 | 54% | 32 | 75.87 | 0.0 | ||||||
| 04 | 00:35 | SE 19 | 16.09 | Overcast | OVC100 | 30 | 19.7 | 54% | 32 | 75.87 | 0.0 | ||||||
| 04 | 00:15 | SE 19 | 16.09 | Mostly Cloudy | BKN090 | 30.2 | 19.8 | 54% | 32 | 75.87 | 0.0 | ||||||
| 03 | 23:47 | SE 22 | 16.09 | Mostly Cloudy | BKN090 | 30 | 20 | 55% | 32 | 75.84 | 0.0 | ||||||
| 03 | 22:47 | SE 30 | 16.09 | Mostly Cloudy | BKN110 | 31 | 20 | 52% | 33 | 75.82 | 0.0 | ||||||
| 03 | 21:47 | S 26 | 16.09 | Partly Cloudy | SCT100 | 32 | 19 | 46% | 33 | 75.82 | 0.0 | ||||||
| 03 | 20:47 | SE 24 | 16.09 | Mostly Cloudy | BKN100 BKN120 | 32 | 18 | 43% | 33 | 75.77 | 0.0 | ||||||
| 03 | 19:50 | SE 17 | 16.09 | Partly Cloudy | SCT120 | 33 | 18 | 41% | 34 | 75.72 | 0.0 | ||||||
| 03 | 18:48 | S 30 | 16.09 | Mostly Cloudy | SCT060 BKN100 | 32 | 18 | 43% | 33 | 75.72 | 0.0 | ||||||
| 03 | 17:53 | SE 11 G 26 | 16.09 | Partly Cloudy | SCT100 | 36 | 16 | 30% | 36 | 75.69 | 0.0 | ||||||
| 03 | 16:50 | SE 17 | 16.09 | Partly Cloudy | SCT100 | 37 | 16 | 29% | 37 | 75.69 | 0.0 | ||||||
| 03 | 15:52 | Calm | 16.09 | Partly Cloudy | SCT080 | 37 | 16 | 29% | 37 | 75.74 | 0.0 | ||||||
| 03 | 14:48 | SE 9 | 16.09 | Partly Cloudy | SCT080 | 37 | 15 | 27% | 37 | 75.79 | 0.0 | ||||||
| 03 | 13:48 | Vrbl 9 | 16.09 | Partly Cloudy | SCT080 | 36 | 15 | 28% | 36 | 75.87 | 0.0 | ||||||
| 03 | 12:50 | SE 17 | 16.09 | Partly Cloudy | SCT080 | 35 | 17 | 34% | 36 | 75.92 | 0.0 | ||||||
| 03 | 11:47 | E 6 | 16.09 | Fair | CLR | 34 | 17 | 36% | 35 | 76.02 | 0.0 | ||||||
| 03 | 10:55 | S 7 | 16.09 | Fair | CLR | 33 | 18 | 41% | 34 | 76.07 | 0.0 | ||||||
| 03 | 09:53 | Vrbl 7 | 16.09 | Fair | CLR | 32 | 18 | 43% | 33 | 76.07 | 0.0 | ||||||
| 03 | 08:55 | S 7 | 16.09 | A Few Clouds | FEW100 | 31 | 19 | 49% | 32 | 76.1 | 0.0 | ||||||
| 03 | 07:55 | S 13 | 16.09 | Partly Cloudy | SCT090 | 30 | 20 | 55% | 32 | 76.1 | 0.0 | ||||||
| 03 | 06:50 | S 13 | 16.09 | Fair | CLR | 28 | 21 | 66% | 30 | 76.07 | 0.0 | ||||||
| 03 | 05:50 | SE 7 | 16.09 | Fair | CLR | 27 | 21 | 70% | 29 | 76.02 | 0.0 | ||||||
| 03 | 04:52 | SE 7 | 16.09 | Fair | CLR | 28 | 21 | 66% | 30 | 75.97 | 0.0 | ||||||
| 03 | 04:35 | SE 9 | 16.09 | Fair | CLR | 27.8 | 20.2 | 63% | 30 | 75.97 | 0.0 | ||||||
| 03 | 04:15 | E 9 | 16.09 | Fair | CLR | 28.1 | 19.9 | 61% | 30 | 75.97 | 0.0 | ||||||
| 03 | 03:55 | SE 7 | 16.09 | Fair | CLR | 28.2 | 19.8 | 60% | 30 | 75.97 | 0.0 | ||||||
| 03 | 03:35 | E 7 | 16.09 | Fair | CLR | 28.7 | 19.5 | 58% | 30 | 75.97 | 0.0 | ||||||
| 03 | 03:15 | E 9 | 16.09 | Fair | CLR | 28.9 | 19.4 | 57% | 30 | 75.97 | 0.0 | ||||||
| 03 | 02:55 | NE 7 | 16.09 | Fair | CLR | 29 | 19.5 | 57% | 31 | 75.97 | 0.0 | ||||||
| 03 | 02:35 | E 9 | 16.09 | Fair | CLR | 29.9 | 17 | 46% | 30 | 75.97 | 0.0 | ||||||
| 03 | 02:15 | SW 11 | 16.09 | Fair | CLR | 30.4 | 16.4 | 43% | 31 | 75.95 | 0.0 | ||||||
| 03 | 01:55 | SW 11 | 16.09 | Fair | CLR | 30 | 18.3 | 49% | 31 | 75.95 | 0.0 | ||||||
| 03 | 01:30 | SE 11 | 16.09 | Fair | CLR | 30.4 | 18.7 | 50% | 32 | 75.97 | 0.0 | ||||||
| 03 | 01:15 | SE 9 | 16.09 | Fair | CLR | 31 | 18.6 | 48% | 32 | 75.97 | 0.0 | ||||||
| 03 | 00:55 | S 7 | 16.09 | Fair | CLR | 31.4 | 18.3 | 46% | 32 | 75.95 | 0.0 | ||||||
| 03 | 00:35 | SW 7 | 16.09 | Fair | CLR | 31.3 | 18.2 | 46% | 32 | 75.95 | 0.0 | ||||||
| 03 | 00:15 | W 15 | 16.09 | Fair | CLR | 31.9 | 17.9 | 43% | 33 | 75.95 | 0.0 | ||||||
| 02 | 23:51 | W 11 | 16.09 | Fair | CLR | 32 | 18 | 43% | 33 | 75.95 | 0.0 | ||||||
| 02 | 22:51 | SW 11 | 16.09 | Fair | CLR | 33 | 17 | 38% | 33 | 75.92 | 0.0 | ||||||
| 02 | 21:51 | SW 9 | 16.09 | Fair | CLR | 33 | 17 | 38% | 33 | 75.95 | 0.0 | ||||||
| 02 | 20:50 | W 9 | 16.09 | Partly Cloudy | SCT100 | 35 | 16 | 32% | 35 | 75.92 | 0.0 | ||||||
| 02 | 19:51 | W 15 | 16.09 | Fair | CLR | 35 | 15 | 30% | 35 | 75.84 | 0.0 | ||||||
| 02 | 18:47 | W 15 | 16.09 | Fair | CLR | 36 | 15 | 28% | 36 | 75.82 | 0.0 | ||||||
| 02 | 17:49 | NW 11 | 16.09 | Fair | CLR | 37 | 14 | 25% | 36 | 75.79 | 0.0 | ||||||
| 02 | 16:51 | NW 9 | 16.09 | Partly Cloudy | SCT095 | 38 | 14 | 24% | 38 | 75.82 | 0.0 | ||||||
| 02 | 15:48 | NW 11 | 16.09 | A Few Clouds | FEW100 | 38 | 15 | 25% | 38 | 75.87 | 0.0 | ||||||
| 02 | 14:47 | SW 22 | 16.09 | A Few Clouds | FEW120 | 37 | 16 | 29% | 37 | 75.95 | 0.0 | ||||||
| 02 | 13:52 | SW 26 | 16.09 | Partly Cloudy | SCT100 | 37 | 16 | 29% | 37 | 76 | 0.0 | ||||||
| 02 | 12:51 | W 20 | 16.09 | Partly Cloudy | SCT100 | 36 | 17 | 32% | 37 | 76.07 | 0.0 | ||||||
| 02 | 11:51 | SW 11 | 16.09 | Fair | CLR | 35 | 18 | 36% | 36 | 76.12 | 0.0 | ||||||
| 02 | 09:50 | S 9 | 16.09 | A Few Clouds | FEW100 | 33 | 20 | 46% | 35 | 76.2 | 0.0 | ||||||
| 02 | 08:50 | S 9 | 16.09 | A Few Clouds | FEW100 | 31 | 21 | 55% | 34 | 76.2 | 0.0 | ||||||
| 02 | 07:50 | SE 17 | 16.09 | Fair | CLR | 29 | 21 | 62% | 31 | 76.17 | 0.0 | ||||||
| 02 | 06:47 | E 17 | 16.09 | Fair | CLR | 27 | 21 | 70% | 29 | 76.12 | 0.0 | ||||||
| 02 | 05:51 | SE 13 | 16.09 | Fair | CLR | 27 | 20 | 66% | 29 | 76.1 | 0.0 | ||||||
| 02 | 04:50 | SE 9 | 16.09 | Fair | CLR | 28 | 20 | 62% | 30 | 76.07 | 0.0 | ||||||
| 02 | 04:35 | SE 13 | 16.09 | Fair | CLR | 27.6 | 20.2 | 64% | 29 | 76.05 | 0.0 | ||||||
| 02 | 04:15 | SE 13 | 16.09 | Fair | CLR | 27.8 | 20.1 | 63% | 29 | 76.05 | 0.0 | ||||||
| 02 | 03:55 | E 11 | 16.09 | Fair | CLR | 28.4 | 20 | 60% | 30 | 76.05 | 0.0 | ||||||
| 02 | 03:35 | SE 13 | 16.09 | Fair | CLR | 28 | 20.2 | 63% | 30 | 76.05 | 0.0 | ||||||
| 02 | 03:15 | E 9 | 16.09 | Fair | CLR | 28.4 | 20.1 | 61% | 30 | 76.05 | 0.0 | ||||||
| 02 | 02:55 | SE 11 | 16.09 | Fair | CLR | 28.6 | 20.3 | 61% | 30 | 76.05 | 0.0 | ||||||
| 02 | 02:35 | SE 9 | 16.09 | Fair | CLR | 28.5 | 20.6 | 62% | 31 | 76.05 | 0.0 | ||||||
| 02 | 02:15 | SE 9 | 16.09 | Fair | CLR | 28.8 | 20.4 | 60% | 31 | 76.05 | 0.0 | ||||||
| 02 | 01:55 | SE 9 | 16.09 | Fair | CLR | 28.7 | 20.5 | 61% | 31 | 76.05 | 0.0 | ||||||
| 02 | 01:35 | SE 11 | 16.09 | Fair | CLR | 29.1 | 20.4 | 59% | 31 | 76.05 | 0.0 | ||||||
| 02 | 01:15 | SE 11 | 16.09 | Fair | CLR | 29.2 | 20.8 | 61% | 31 | 76.05 | 0.0 | ||||||
| 02 | 00:55 | SE 13 | 16.09 | Fair | CLR | 30.1 | 20.3 | 56% | 32 | 76.05 | 0.0 | ||||||
| 02 | 00:35 | E 13 | 16.09 | Fair | CLR | 30.4 | 20.5 | 55% | 33 | 76.05 | 0.0 | ||||||
| 02 | 00:15 | SE 11 | 16.09 | Fair | CLR | 30.8 | 20.3 | 54% | 33 | 76.02 | 0.0 | ||||||
| 01 | 23:50 | E 11 | 16.09 | Fair | CLR | 31 | 20 | 52% | 33 | 76.02 | 0.0 | ||||||
| 01 | 22:56 | S 11 | 16.09 | Fair | CLR | 31 | 20 | 52% | 33 | 76.02 | 0.0 | ||||||
| 01 | 21:47 | SE 11 | 16.09 | Fair | CLR | 32 | 20 | 49% | 34 | 76.02 | 0.0 | ||||||
| 01 | 20:56 | Calm | 16.09 | Fair | CLR | 34 | 18 | 39% | 35 | 75.97 | 0.0 | ||||||
| Date | Time (mst) | Wind (kph) | Vis. (km) | Weather | Sky Cond. | Air | Dwpt | Max. | Min. | Relative Humidity | Wind Chill (°C) | Heat Index (°C) | altimeter (cm) | sea level (mb) | 1 hr | 3 hr | 6 hr |
| 6 hour | |||||||||||||||||
| Temperature (ºC) | Pressure | Precipitation (cm) | |||||||||||||||